| time (UTC) | temp C | wind direction | speed KPH | gust KPH | rain 1hr cm | rain 24hr cm | rain mn cm | humidity % | barometer mb |
| 20260902070057 | 18 | 360 | 4.8 | 8.0 | 0.00 | 0.00 | 0.00 | 71 | 1024.3 |
| 20260902064546 | 18 | 360 | 3.2 | 6.4 | 0.00 | 0.00 | 0.00 | 71 | 1024.1 |
| 20260902063031 | 18 | 360 | 3.2 | 6.4 | 0.00 | 0.00 | 0.00 | 72 | 1024.3 |
| 20260902061547 | 18 | 360 | 0.0 | 1.6 | 0.00 | 0.00 | 0.00 | 72 | 1024.3 |
| 20260902060025 | 18 | 360 | 0.0 | 3.2 | 0.00 | 0.00 | 0.00 | 71 | 1024.3 |
| 20260902054516 | 18 | 360 | 0.0 | 1.6 | 0.00 | 0.00 | 0.00 | 70 | 1024.2 |
| 20260902053048 | 17 | 360 | 0.0 | 1.6 | 0.00 | 0.00 | 0.00 | 71 | 1024.3 |
| 20260902051519 | 17 | 360 | 0.0 | 0.0 | 0.00 | 0.00 | 0.00 | 72 | 1024.1 |
| 20260902050041 | 16 | 360 | 0.0 | 1.6 | 0.00 | 0.00 | 0.00 | 72 | 1024.1 |
| 20260902044532 | 16 | 360 | 3.2 | 6.4 | 0.00 | 0.00 | 0.00 | 72 | 1024.1 |
| 20260902043022 | 16 | 360 | 0.0 | 4.8 | 0.00 | 0.00 | 0.00 | 71 | 1024.0 |
| 20260902041532 | 16 | 360 | 1.6 | 8.0 | 0.00 | 0.00 | 0.00 | 72 | 1023.9 |
| 20260902040017 | 16 | 360 | 0.0 | 0.0 | 0.00 | 0.00 | 0.00 | 73 | 1023.8 |
| 20260902034530 | 17 | 360 | 0.0 | 0.0 | 0.00 | 0.00 | 0.00 | 73 | 1023.7 |
| 20260902033033 | 17 | 360 | 0.0 | 0.0 | 0.00 | 0.00 | 0.00 | 71 | 1023.7 |
| 20260902031522 | 17 | 360 | 0.0 | 0.0 | 0.00 | 0.00 | 0.00 | 70 | 1023.8 |
| 20260902030046 | 17 | 360 | 0.0 | 1.6 | 0.00 | 0.00 | 0.00 | 71 | 1023.8 |
| 20260902024517 | 17 | 360 | 0.0 | 3.2 | 0.00 | 0.00 | 0.00 | 70 | 1023.7 |
| 20260902023025 | 18 | 360 | 1.6 | 8.0 | 0.00 | 0.00 | 0.00 | 70 | 1023.8 |
| 20260902021557 | 18 | 360 | 3.2 | 6.4 | 0.00 | 0.00 | 0.00 | 69 | 1023.7 |
| 20260902020029 | 18 | 360 | 0.0 | 9.7 | 0.00 | 0.00 | 0.00 | 68 | 1023.7 |
| 20260902014538 | 18 | 360 | 0.0 | 1.6 | 0.00 | 0.00 | 0.00 | 68 | 1023.7 |
| 20260902013027 | 18 | 360 | 1.6 | 9.7 | 0.00 | 0.00 | 0.00 | 68 | 1023.7 |
| 20260902011521 | 18 | 360 | 0.0 | 1.6 | 0.00 | 0.00 | 0.00 | 68 | 1023.7 |
| 20260902010027 | 18 | 360 | 0.0 | 3.2 | 0.00 | 0.00 | 0.00 | 67 | 1023.8 |
| 20260902004535 | 18 | 360 | 0.0 | 4.8 | 0.00 | 0.00 | 0.00 | 67 | 1023.9 |
| 20260902003025 | 19 | 360 | 0.0 | 1.6 | 0.00 | 0.00 | 0.00 | 66 | 1023.8 |
| 20260902001538 | 19 | 360 | 0.0 | 3.2 | 0.00 | 0.00 | 0.00 | 65 | 1024.0 |
| 20260902000025 | 20 | 360 | 0.0 | 8.0 | 0.00 | 0.00 | 0.00 | 64 | 1024.0 |
| 20260901234518 | 20 | 5 | 1.6 | 6.4 | 0.00 | 0.00 | 0.00 | 64 | 1024.0 |
| 20260901233026 | 20 | 9 | 4.8 | 12.9 | 0.00 | 0.00 | 0.00 | 63 | 1024.1 |
| 20260901231540 | 20 | 277 | 4.8 | 9.7 | 0.00 | 0.00 | 0.00 | 64 | 1024.0 |
| 20260901230043 | 20 | 283 | 1.6 | 6.4 | 0.00 | 0.00 | 0.00 | 63 | 1024.0 |
| 20260901224533 | 20 | 360 | 4.8 | 12.9 | 0.00 | 0.00 | 0.00 | 63 | 1024.0 |
| 20260901223023 | 21 | 70 | 0.0 | 0.0 | 0.00 | 0.00 | 0.00 | 63 | 1024.0 |
| 20260901221520 | 21 | 70 | 0.0 | 0.0 | 0.00 | 0.00 | 0.00 | 63 | 1024.1 |
| 20260901220030 | 22 | 70 | 0.0 | 0.0 | 0.00 | 0.00 | 0.00 | 62 | 1024.0 |
| 20260901214521 | 22 | 70 | 0.0 | 0.0 | 0.00 | 0.00 | 0.00 | 61 | 1024.0 |
| 20260901213032 | 22 | 70 | 0.0 | 0.0 | 0.00 | 0.00 | 0.00 | 60 | 1024.0 |
| 20260901211521 | 23 | 69 | 3.2 | 6.4 | 0.00 | 0.00 | 0.00 | 58 | 1024.0 |
| 20260901210110 | 23 | 71 | 3.2 | 4.8 | 0.00 | 0.00 | 0.00 | 58 | 1023.8 |
| 20260901204538 | 23 | 70 | 3.2 | 14.5 | 0.00 | 0.00 | 0.00 | 58 | 1023.6 |
| 20260901203047 | 23 | 44 | 4.8 | 9.7 | 0.00 | 0.00 | 0.00 | 59 | 1023.6 |
| 20260901201517 | 23 | 271 | 6.4 | 9.7 | 0.00 | 0.00 | 0.00 | 59 | 1023.5 |
| 20260901200045 | 23 | 274 | 4.8 | 12.9 | 0.00 | 0.00 | 0.00 | 58 | 1023.4 |
| 20260901194600 | 23 | 265 | 8.0 | 14.5 | 0.00 | 0.00 | 0.00 | 58 | 1023.4 |
| 20260901193026 | 24 | 251 | 4.8 | 14.5 | 0.00 | 0.00 | 0.00 | 56 | 1023.2 |
| 20260901191517 | 25 | 281 | 6.4 | 11.3 | 0.00 | 0.00 | 0.00 | 55 | 1023.1 |
| 20260901190026 | 25 | 242 | 3.2 | 16.1 | 0.00 | 0.00 | 0.00 | 54 | 1022.9 |
| 20260901184557 | 25 | 244 | 8.0 | 16.1 | 0.00 | 0.00 | 0.00 | 53 | 1022.6 |
| 20260901183035 | 26 | 269 | 9.7 | 19.3 | 0.00 | 0.00 | 0.00 | 53 | 1022.5 |
| 20260901181532 | 26 | 293 | 9.7 | 17.7 | 0.00 | 0.00 | 0.00 | 53 | 1022.4 |
| 20260901180025 | 26 | 257 | 8.0 | 16.1 | 0.00 | 0.00 | 0.00 | 50 | 1022.2 |
| 20260901174554 | 27 | 288 | 6.4 | 19.3 | 0.00 | 0.00 | 0.00 | 47 | 1021.9 |
| 20260901173020 | 27 | 210 | 12.9 | 22.5 | 0.00 | 0.00 | 0.00 | 45 | 1021.8 |
| 20260901171534 | 28 | 222 | 9.7 | 19.3 | 0.00 | 0.00 | 0.00 | 39 | 1021.8 |
| 20260901170041 | 29 | 238 | 9.7 | 24.1 | 0.00 | 0.00 | 0.00 | 38 | 1021.8 |
| 20260901164518 | 30 | 325 | 11.3 | 24.1 | 0.00 | 0.00 | 0.00 | 37 | 1021.7 |
| 20260901163029 | 30 | 258 | 12.9 | 19.3 | 0.00 | 0.00 | 0.00 | 36 | 1021.8 |
| 20260901161520 | 30 | 296 | 16.1 | 25.7 | 0.00 | 0.00 | 0.00 | 36 | 1021.7 |
| 20260901160025 | 31 | 306 | 11.3 | 20.9 | 0.00 | 0.00 | 0.00 | 35 | 1021.7 |
| 20260901154519 | 31 | 300 | 14.5 | 22.5 | 0.00 | 0.00 | 0.00 | 34 | 1021.6 |
| 20260901153044 | 31 | 312 | 8.0 | 20.9 | 0.00 | 0.00 | 0.00 | 34 | 1021.5 |
| 20260901151531 | 31 | 258 | 16.1 | 20.9 | 0.00 | 0.00 | 0.00 | 34 | 1021.5 |
| 20260901150021 | 31 | 272 | 14.5 | 20.9 | 0.00 | 0.00 | 0.00 | 32 | 1021.5 |
| 20260901144530 | 31 | 256 | 9.7 | 19.3 | 0.00 | 0.00 | 0.00 | 30 | 1021.5 |
| 20260901143030 | 32 | 289 | 8.0 | 17.7 | 0.00 | 0.00 | 0.00 | 30 | 1021.5 |
| 20260901141547 | 31 | 248 | 8.0 | 14.5 | 0.00 | 0.00 | 0.00 | 28 | 1021.6 |
| 20260901140019 | 31 | 278 | 3.2 | 20.9 | 0.00 | 0.00 | 0.00 | 30 | 1021.6 |
| 20260901134525 | 31 | 200 | 3.2 | 14.5 | 0.00 | 0.00 | 0.00 | 30 | 1021.8 |
| 20260901133018 | 31 | 259 | 4.8 | 16.1 | 0.00 | 0.00 | 0.00 | 31 | 1021.8 |
| 20260901131546 | 31 | 233 | 1.6 | 17.7 | 0.00 | 0.00 | 0.00 | 31 | 1022.0 |
| 20260901130054 | 31 | 180 | 3.2 | 9.7 | 0.00 | 0.00 | 0.00 | 31 | 1022.2 |
| 20260901124524 | 31 | 254 | 4.8 | 16.1 | 0.00 | 0.00 | 0.00 | 33 | 1022.3 |
| 20260901123049 | 31 | 256 | 6.4 | 17.7 | 0.00 | 0.00 | 0.00 | 33 | 1022.3 |
| 20260901121520 | 30 | 279 | 4.8 | 17.7 | 0.00 | 0.00 | 0.00 | 34 | 1022.4 |
| 20260901120049 | 31 | 244 | 1.6 | 12.9 | 0.00 | 0.00 | 0.00 | 35 | 1022.6 |
| 20260901114535 | 30 | 104 | 0.0 | 11.3 | 0.00 | 0.00 | 0.00 | 40 | 1022.7 |
| 20260901113021 | 30 | 121 | 1.6 | 12.9 | 0.00 | 0.00 | 0.00 | 41 | 1022.7 |
| 20260901111535 | 30 | 138 | 3.2 | 12.9 | 0.00 | 0.00 | 0.00 | 41 | 1022.8 |
| 20260901110028 | 30 | 136 | 0.0 | 9.7 | 0.00 | 0.00 | 0.00 | 40 | 1022.9 |
| 20260901104553 | 30 | 142 | 0.0 | 9.7 | 0.00 | 0.00 | 0.00 | 41 | 1023.0 |
| 20260901103018 | 30 | 123 | 3.2 | 12.9 | 0.00 | 0.00 | 0.00 | 42 | 1023.1 |
| 20260901101534 | 29 | 122 | 4.8 | 12.9 | 0.00 | 0.00 | 0.00 | 42 | 1023.3 |
| 20260901100020 | 28 | 108 | 3.2 | 9.7 | 0.00 | 0.00 | 0.00 | 45 | 1023.3 |
| 20260901094533 | 28 | 107 | 1.6 | 6.4 | 0.00 | 0.00 | 0.00 | 46 | 1023.4 |
| 20260901093045 | 27 | 108 | 0.0 | 9.7 | 0.00 | 0.00 | 0.00 | 49 | 1023.5 |
| 20260901091532 | 27 | 92 | 3.2 | 11.3 | 0.00 | 0.00 | 0.00 | 50 | 1023.5 |
| 20260901090029 | 27 | 97 | 1.6 | 6.4 | 0.00 | 0.00 | 0.00 | 52 | 1023.4 |
| 20260901084543 | 26 | 94 | 3.2 | 6.4 | 0.00 | 0.00 | 0.00 | 52 | 1023.6 |
| 20260901083031 | 26 | 94 | 1.6 | 6.4 | 0.00 | 0.00 | 0.00 | 53 | 1023.5 |
| 20260901081522 | 25 | 94 | 1.6 | 6.4 | 0.00 | 0.00 | 0.00 | 55 | 1023.4 |
| 20260901080033 | 25 | 94 | 4.8 | 11.3 | 0.00 | 0.00 | 0.00 | 55 | 1023.5 |
| 20260901074539 | 25 | 22 | 3.2 | 6.4 | 0.00 | 0.00 | 0.00 | 55 | 1023.3 |
| 20260901073021 | 24 | 360 | 0.0 | 4.8 | 0.00 | 0.00 | 0.00 | 58 | 1023.3 |
| 20260901071518 | 23 | 360 | 0.0 | 4.8 | 0.00 | 0.00 | 0.00 | 60 | 1023.4 |